Back to catalog

STARLINK-35682

AliveCommunicationsVLEO
NORAD 66467·PAYLOAD·🇺🇸 United States

Launched Nov 15, 2025 from Cape Canaveral Space Force Station

Loading…

Next Passes (next 24 hours)

TLE

FreshSource: CelesTrak SupGP

Epoch: Sep 14, 2026, 15:50 UTC

1 66467C 25262M   26257.66020833  .00043594  00000+0  15789-2 0  2579
2 66467  43.0033 309.4087 0001970 282.6103  14.6326 15.27558323    18

Track STARLINK-35682 in real time with AllMySat

Download on the App Store